EW6013 Weather Reports


time (UTC)temp
C
wind
direction
speed
KPH
gust
KPH
rain 1hr
cm
rain 24hr
cm
rain mn
cm
humidity
%
barometer
mb
20210723164516 25 154 0.0 6.4 0.00 0.00 0.00 59 1015.9
20210723164016 25 132 1.6 6.4 0.00 0.00 0.00 57 1016.0
20210723163516 25 83 0.0 3.2 0.00 0.00 0.00 55 1016.0
20210723163016 25 82 0.0 4.8 0.00 0.00 0.00 57 1016.0
20210723162516 25 269 0.0 4.8 0.00 0.00 0.00 57 1016.1
20210723162016 25 251 0.0 8.0 0.00 0.00 0.00 54 1016.1
20210723161516 25 302 1.6 8.0 0.00 0.00 0.00 57 1016.2
20210723161016 25 36 1.6 8.0 0.00 0.00 0.00 58 1016.2
20210723160516 25 84 0.0 4.8 0.00 0.00 0.00 59 1016.3
20210723160016 25 334 0.0 11.3 0.00 0.00 0.00 57 1016.3
20210723155516 25 287 3.2 11.3 0.00 0.00 0.00 54 1016.4
20210723155016 25 283 1.6 9.7 0.00 0.00 0.00 59 1016.5
20210723154516 24 12 0.0 4.8 0.00 0.00 0.00 59 1016.5
20210723154016 24 22 1.6 6.4 0.00 0.00 0.00 60 1016.5
20210723153516 24 256 0.0 11.3 0.00 0.00 0.00 60 1016.4
20210723153016 24 317 1.6 11.3 0.00 0.00 0.00 64 1016.5
20210723152516 24 81 0.0 4.8 0.00 0.00 0.00 62 1016.6
20210723152016 24 243 0.0 4.8 0.00 0.00 0.00 66 1016.6
20210723151516 24 255 0.0 4.8 0.00 0.00 0.00 62 1016.6
20210723151016 23 0.0 0.0 0.00 0.00 0.00 64 1016.7
20210723150516 23 0.0 0.0 0.00 0.00 0.00 62 1016.7
20210723150016 23 0.0 1.6 0.00 0.00 0.00 62 1016.8
20210723145516 23 226 0.0 8.0 0.00 0.00 0.00 62 1016.8
20210723145016 23 102 0.0 8.0 0.00 0.00 0.00 63 1016.8
20210723144516 23 0.0 0.0 0.00 0.00 0.00 62 1016.7
20210723144016 23 0.0 0.0 0.00 0.00 0.00 61 1016.7
20210723143516 23 0.0 0.0 0.00 0.00 0.00 63 1016.8
20210723143016 23 0.0 0.0 0.00 0.00 0.00 63 1016.8
20210723142516 23 0.0 1.6 0.00 0.00 0.00 64 1016.8
20210723142016 23 314 0.0 6.4 0.00 0.00 0.00 65 1016.7
20210723141516 22 288 0.0 6.4 0.00 0.00 0.00 68 1016.7
20210723141016 22 88 0.0 4.8 0.00 0.00 0.00 68 1016.8
20210723140516 22 318 1.6 8.0 0.00 0.00 0.00 68 1016.8
20210723140016 21 48 0.0 8.0 0.00 0.00 0.00 69 1016.8
20210723135516 21 287 0.0 4.8 0.00 0.00 0.00 71 1016.9
20210723135016 21 315 0.0 8.0 0.00 0.00 0.00 72 1016.9
20210723134516 20 268 1.6 8.0 0.00 0.00 0.00 74 1016.9
20210723134016 20 326 0.0 9.7 0.00 0.00 0.00 75 1016.9
20210723133516 20 306 1.6 12.9 0.00 0.00 0.00 75 1016.9
20210723133016 20 295 1.6 12.9 0.00 0.00 0.00 75 1016.9
20210723132516 20 198 0.0 6.4 0.00 0.00 0.00 79 1016.9
20210723132016 19 275 0.0 6.4 0.00 0.00 0.00 77 1016.9
20210723131516 18 299 0.0 9.7 0.00 0.00 0.00 79 1017.0
20210723131016 18 8 1.6 9.7 0.00 0.00 0.00 82 1017.0
20210723130516 18 53 1.6 6.4 0.00 0.00 0.00 84 1017.0
20210723130016 18 312 0.0 3.2 0.00 0.00 0.00 85 1016.9
20210723125516 18 332 0.0 3.2 0.00 0.00 0.00 86 1016.9
20210723125016 17 285 0.0 1.6 0.00 0.00 0.00 89 1016.9
20210723124516 17 0.0 1.6 0.00 0.00 0.00 88 1016.8
20210723124016 17 285 0.0 4.8 0.00 0.00 0.00 89 1016.8
20210723123516 17 287 0.0 4.8 0.00 0.00 0.00 89 1016.8
20210723123016 17 0.0 1.6 0.00 0.00 0.00 89 1016.7
20210723122516 17 332 0.0 3.2 0.00 0.00 0.00 90 1016.7
20210723122016 16 257 0.0 3.2 0.00 0.00 0.00 91 1016.7
20210723121516 16 0.0 0.0 0.00 0.00 0.00 92 1016.7
20210723121016 16 0.0 1.6 0.00 0.00 0.00 93 1016.7
20210723120516 16 279 0.0 1.6 0.00 0.00 0.00 95 1016.6
20210723120016 16 0.0 0.0 0.00 0.00 0.00 96 1016.7
20210723115516 16 0.0 3.2 0.00 0.00 0.00 97 1016.6
20210723115016 15 279 0.0 3.2 0.00 0.00 0.00 97 1016.6
20210723114516 15 285 0.0 3.2 0.00 0.00 0.00 97 1016.5
20210723114016 15 0.0 0.0 0.00 0.00 0.00 97 1016.5
20210723113516 15 0.0 0.0 0.00 0.00 0.00 97 1016.5
20210723113016 15 0.0 0.0 0.00 0.00 0.00 97 1016.5
20210723112515 15 0.0 0.0 0.00 0.00 0.00 97 1016.4
20210723112016 15 0.0 0.0 0.00 0.00 0.00 97 1016.4
20210723111516 15 0.0 0.0 0.00 0.00 0.00 97 1016.4
20210723111016 15 0.0 0.0 0.00 0.00 0.00 97 1016.4
20210723110516 14 0.0 0.0 0.00 0.00 0.00 97 1016.4
20210723110015 14 0.0 0.0 0.00 0.00 0.00 97 1016.3
20210723105516 14 0.0 0.0 0.00 0.00 0.00 97 1016.3
20210723105015 14 0.0 0.0 0.00 0.00 0.00 97 1016.3
20210723104515 14 0.0 0.0 0.00 0.00 0.00 97 1016.2
20210723104015 13 0.0 0.0 0.00 0.00 0.00 97 1016.2
20210723103515 13 0.0 0.0 0.00 0.00 0.00 97 1016.1
20210723103016 13 0.0 0.0 0.00 0.00 0.00 96 1016.1
20210723102515 13 0.0 0.0 0.00 0.00 0.00 96 1016.1
20210723102015 13 0.0 0.0 0.00 0.00 0.00 96 1016.0
20210723101515 13 0.0 0.0 0.00 0.00 0.00 96 1016.0
20210723101015 13 0.0 0.0 0.00 0.00 0.00 96 1015.9
20210723100515 13 0.0 0.0 0.00 0.00 0.00 96 1015.9
20210723100015 13 0.0 0.0 0.00 0.00 0.00 96 1015.8
20210723095515 13 0.0 0.0 0.00 0.00 0.00 96 1015.7
20210723095016 13 0.0 0.0 0.00 0.00 0.00 96 1015.7
20210723094515 13 0.0 0.0 0.00 0.00 0.00 96 1015.6
20210723094015 13 0.0 0.0 0.00 0.00 0.00 96 1015.6
20210723093515 13 0.0 0.0 0.00 0.00 0.00 95 1015.5
20210723093016 14 0.0 0.0 0.00 0.00 0.00 95 1015.5
20210723092515 14 0.0 0.0 0.00 0.00 0.00 95 1015.5
20210723092015 14 0.0 0.0 0.00 0.00 0.00 96 1015.4
20210723091515 14 0.0 0.0 0.00 0.00 0.00 96 1015.4
20210723091015 14 0.0 0.0 0.00 0.00 0.00 96 1015.4
20210723090515 14 0.0 0.0 0.00 0.00 0.00 95 1015.3
20210723090015 14 0.0 0.0 0.00 0.00 0.00 95 1015.3
20210723085515 14 0.0 0.0 0.00 0.00 0.00 95 1015.2
20210723085015 14 0.0 0.0 0.00 0.00 0.00 95 1015.2
20210723084515 14 0.0 0.0 0.00 0.00 0.00 95 1015.2
20210723084015 14 0.0 0.0 0.00 0.00 0.00 95 1015.1
20210723083515 14 0.0 0.0 0.00 0.00 0.00 95 1015.1
20210723083015 15 0.0 0.0 0.00 0.00 0.00 95 1015.2
20210723082515 15 0.0 0.0 0.00 0.00 0.00 94 1015.1
20210723082015 15 0.0 0.0 0.00 0.00 0.00 94 1015.1
20210723081515 15 0.0 0.0 0.00 0.00 0.00 94 1015.1
20210723081015 15 0.0 0.0 0.00 0.00 0.00 94 1015.1
20210723080516 15 0.0 0.0 0.00 0.00 0.00 94 1015.1
20210723080019 15 0.0 0.0 0.00 0.00 0.00 94 1015.1
20210723075515 15 0.0 0.0 0.00 0.00 0.00 94 1015.2
20210723075015 15 0.0 0.0 0.00 0.00 0.00 93 1015.2
20210723074515 15 0.0 0.0 0.00 0.00 0.00 93 1015.2
20210723074015 15 0.0 0.0 0.00 0.00 0.00 93 1015.2
20210723073515 15 0.0 0.0 0.00 0.00 0.00 92 1015.2
20210723073015 15 0.0 0.0 0.00 0.00 0.00 92 1015.2
20210723072515 15 0.0 0.0 0.00 0.00 0.00 92 1015.3
20210723072015 15 0.0 0.0 0.00 0.00 0.00 92 1015.3
20210723071515 15 0.0 0.0 0.00 0.00 0.00 91 1015.2
20210723071015 16 0.0 0.0 0.00 0.00 0.00 92 1015.2
20210723070515 16 0.0 0.0 0.00 0.00 0.00 92 1015.2
20210723070015 16 0.0 0.0 0.00 0.00 0.00 92 1015.3
20210723065515 16 0.0 0.0 0.00 0.00 0.00 91 1015.3
20210723065015 16 0.0 0.0 0.00 0.00 0.00 92 1015.3
20210723064515 16 0.0 0.0 0.00 0.00 0.00 91 1015.3
20210723064015 16 0.0 0.0 0.00 0.00 0.00 92 1015.3
20210723063515 16 0.0 0.0 0.00 0.00 0.00 92 1015.4
20210723063015 16 0.0 0.0 0.00 0.00 0.00 92 1015.4
20210723062515 16 0.0 0.0 0.00 0.00 0.00 92 1015.4
20210723062015 16 0.0 0.0 0.00 0.00 0.00 92 1015.5
20210723061515 16 0.0 0.0 0.00 0.00 0.00 92 1015.5
20210723061015 16 0.0 0.0 0.00 0.00 0.00 92 1015.5
20210723060515 16 0.0 0.0 0.00 0.00 0.00 92 1015.5
20210723060015 16 0.0 0.0 0.00 0.00 0.00 92 1015.5
20210723055515 16 0.0 0.0 0.00 0.00 0.00 92 1015.5
20210723055015 16 0.0 0.0 0.00 0.00 0.00 93 1015.6
20210723054515 16 0.0 0.0 0.00 0.00 0.00 93 1015.6
20210723054015 16 0.0 0.0 0.00 0.00 0.00 92 1015.6
20210723053515 16 0.0 0.0 0.00 0.00 0.00 92 1015.6
20210723053015 17 0.0 0.0 0.00 0.00 0.00 92 1015.6
20210723052515 17 0.0 0.0 0.00 0.00 0.00 93 1015.5
20210723052015 17 0.0 0.0 0.00 0.00 0.00 92 1015.6
20210723051515 17 0.0 0.0 0.00 0.00 0.00 92 1015.6
20210723051015 17 0.0 0.0 0.00 0.00 0.00 92 1015.6
20210723050515 17 0.0 0.0 0.00 0.00 0.00 92 1015.6
20210723050015 17 0.0 0.0 0.00 0.00 0.00 92 1015.7
20210723045515 17 0.0 0.0 0.00 0.00 0.00 92 1015.7
20210723045015 17 0.0 0.0 0.00 0.00 0.00 92 1015.7
20210723044517 17 0.0 0.0 0.00 0.00 0.00 92 1015.8
20210723044017 17 0.0 0.0 0.00 0.00 0.00 92 1015.8
20210723043516 17 0.0 0.0 0.00 0.00 0.00 92 1015.8
20210723043017 17 0.0 0.0 0.00 0.00 0.00 92 1015.8
20210723042517 17 0.0 0.0 0.00 0.00 0.00 92 1015.8
20210723042017 17 0.0 0.0 0.00 0.00 0.00 92 1015.8
20210723041517 17 0.0 0.0 0.00 0.00 0.00 92 1015.7
20210723041017 17 0.0 0.0 0.00 0.00 0.00 92 1015.8
20210723040516 17 0.0 0.0 0.00 0.00 0.00 91 1015.8
20210723040015 17 0.0 0.0 0.00 0.00 0.00 91 1015.8
20210723035515 17 0.0 0.0 0.00 0.00 0.00 91 1015.8
20210723035015 17 0.0 0.0 0.00 0.00 0.00 91 1015.8
20210723034516 17 0.0 0.0 0.00 0.00 0.00 91 1015.7
20210723034015 17 0.0 0.0 0.00 0.00 0.00 91 1015.7
20210723033515 17 0.0 0.0 0.00 0.00 0.00 91 1015.7
20210723033015 17 0.0 0.0 0.00 0.00 0.00 91 1015.8
20210723032515 17 0.0 0.0 0.00 0.00 0.00 91 1015.8
20210723032015 17 0.0 0.0 0.00 0.00 0.00 91 1015.8
20210723031515 17 0.0 0.0 0.00 0.00 0.00 91 1015.8
20210723031015 17 0.0 0.0 0.00 0.00 0.00 90 1015.8
20210723030516 17 0.0 0.0 0.00 0.00 0.00 90 1015.8
20210723030015 17 0.0 0.0 0.00 0.00 0.00 91 1015.7
20210723025515 17 0.0 0.0 0.00 0.00 0.00 91 1015.6
20210723025015 17 0.0 0.0 0.00 0.00 0.00 91 1015.6
20210723024515 17 0.0 0.0 0.00 0.00 0.00 91 1015.6
20210723024015 17 0.0 0.0 0.00 0.00 0.00 91 1015.5
20210723023515 17 0.0 0.0 0.00 0.00 0.00 91 1015.5
20210723023015 18 0.0 0.0 0.00 0.00 0.00 91 1015.5
20210723022515 18 0.0 0.0 0.00 0.00 0.00 91 1015.5
20210723022015 18 0.0 0.0 0.00 0.00 0.00 90 1015.5
20210723021515 18 0.0 0.0 0.00 0.00 0.00 91 1015.4
20210723021015 18 0.0 0.0 0.00 0.00 0.00 91 1015.4
20210723020515 18 0.0 0.0 0.00 0.00 0.00 91 1015.4
20210723020015 18 0.0 0.0 0.00 0.00 0.00 90 1015.4
20210723015515 18 0.0 0.0 0.00 0.00 0.00 90 1015.4
20210723015015 18 0.0 0.0 0.00 0.00 0.00 90 1015.3
20210723014515 18 0.0 0.0 0.00 0.00 0.00 89 1015.3
20210723014015 18 0.0 0.0 0.00 0.00 0.00 89 1015.3
20210723013515 18 0.0 0.0 0.00 0.00 0.00 89 1015.2
20210723013015 18 0.0 0.0 0.00 0.00 0.00 88 1015.2
20210723012515 18 0.0 0.0 0.00 0.00 0.00 88 1015.2
20210723012015 18 0.0 0.0 0.00 0.00 0.00 87 1015.2
20210723011515 18 0.0 0.0 0.00 0.00 0.00 87 1015.1
20210723011015 18 0.0 0.0 0.00 0.00 0.00 87 1014.9
20210723010515 19 0.0 0.0 0.00 0.00 0.00 87 1014.9
20210723010015 19 0.0 0.0 0.00 0.00 0.00 86 1014.9
20210723005515 19 0.0 0.0 0.00 0.00 0.00 85 1014.8
20210723005015 19 0.0 0.0 0.00 0.00 0.00 85 1014.7
20210723004515 20 0.0 0.0 0.00 0.00 0.00 84 1014.6
20210723004015 20 0.0 0.0 0.00 0.00 0.00 84 1014.6
20210723003515 20 0.0 0.0 0.00 0.00 0.00 85 1014.5
20210723003015 20 0.0 0.0 0.00 0.00 0.00 85 1014.6
20210723002515 20 0.0 0.0 0.00 0.00 0.00 85 1014.6
20210723002015 20 0.0 0.0 0.00 0.00 0.00 85 1014.6
20210723001515 20 0.0 0.0 0.00 0.00 0.00 85 1014.6
20210723001015 20 0.0 0.0 0.00 0.00 0.00 84 1014.6
20210723000515 20 0.0 0.0 0.00 0.00 0.00 84 1014.5
20210723000015 20 0.0 0.0 0.00 0.00 0.00 82 1014.6
20210722235515 21 0.0 0.0 0.00 0.00 0.00 81 1014.5
20210722235015 21 0.0 0.0 0.00 0.00 0.00 79 1014.5
20210722234515 21 0.0 0.0 0.00 0.00 0.00 78 1014.4
20210722234015 21 0.0 0.0 0.00 0.00 0.00 77 1014.4
20210722233514 21 0.0 0.0 0.00 0.00 0.00 76 1014.3
20210722233014 21 0.0 0.0 0.00 0.00 0.00 75 1014.3
20210722232517 22 0.0 0.0 0.00 0.00 0.00 75 1014.2
20210722232017 22 0.0 0.0 0.00 0.00 0.00 73 1014.2
20210722231516 22 0.0 0.0 0.00 0.00 0.00 73 1014.2
20210722231017 22 0.0 0.0 0.00 0.00 0.00 72 1014.1
20210722230516 22 0.0 0.0 0.00 0.00 0.00 71 1014.1
20210722230017 22 0.0 0.0 0.00 0.00 0.00 71 1014.1
20210722225516 22 0.0 0.0 0.00 0.00 0.00 70 1014.0
20210722225017 23 0.0 0.0 0.00 0.00 0.00 70 1013.9
20210722224516 23 0.0 0.0 0.00 0.00 0.00 69 1013.9
20210722224017 23 0.0 0.0 0.00 0.00 0.00 69 1013.8
20210722223517 23 0.0 0.0 0.00 0.00 0.00 67 1013.8
20210722223017 23 0.0 0.0 0.00 0.00 0.00 67 1013.7
20210722222516 23 0.0 0.0 0.00 0.00 0.00 70 1013.7
20210722222016 23 0.0 0.0 0.00 0.00 0.00 70 1013.7
20210722221516 23 0.0 3.2 0.00 0.00 0.00 72 1013.6
20210722221016 23 52 0.0 3.2 0.00 0.00 0.00 71 1013.6
20210722220516 23 0.0 0.0 0.00 0.00 0.00 74 1013.5
20210722220017 23 0.0 0.0 0.00 0.00 0.00 73 1013.5
20210722215516 23 0.0 0.0 0.00 0.00 0.00 72 1013.5
20210722215016 23 0.0 0.0 0.00 0.00 0.00 69 1013.6
20210722214517 23 0.0 0.0 0.00 0.00 0.00 67 1013.5
20210722214016 23 0.0 0.0 0.00 0.00 0.00 65 1013.5
20210722213516 24 0.0 0.0 0.00 0.00 0.00 65 1013.4
20210722213016 24 0.0 0.0 0.00 0.00 0.00 63 1013.3
20210722212516 25 0.0 0.0 0.00 0.00 0.00 61 1013.3
20210722212016 25 0.0 0.0 0.00 0.00 0.00 60 1013.3
20210722211517 25 0.0 0.0 0.00 0.00 0.00 61 1013.3
20210722211016 25 0.0 0.0 0.00 0.00 0.00 65 1013.4
20210722210516 25 0.0 1.6 0.00 0.00 0.00 60 1013.3
20210722210016 24 300 0.0 1.6 0.00 0.00 0.00 61 1013.3
20210722205516 24 300 0.0 1.6 0.00 0.00 0.00 59 1013.2
20210722205016 25 56 0.0 1.6 0.00 0.00 0.00 61 1013.3
20210722204516 25 0.0 0.0 0.00 0.00 0.00 61 1013.3
20210722204017 25 0.0 0.0 0.00 0.00 0.00 58 1013.3
20210722203516 25 0.0 6.4 0.00 0.00 0.00 56 1013.3
20210722203016 25 78 0.0 6.4 0.00 0.00 0.00 57 1013.2
20210722202516 25 285 0.0 4.8 0.00 0.00 0.00 56 1013.3
20210722202016 25 269 0.0 1.6 0.00 0.00 0.00 56 1013.3
20210722201516 25 0.0 0.0 0.00 0.00 0.00 60 1013.3
20210722201016 24 0.0 0.0 0.00 0.00 0.00 61 1013.3
20210722200516 24 0.0 0.0 0.00 0.00 0.00 62 1013.3
20210722200016 24 0.0 3.2 0.00 0.00 0.00 63 1013.3
20210722195516 24 294 0.0 4.8 0.00 0.00 0.00 59 1013.3
20210722195016 24 282 0.0 4.8 0.00 0.00 0.00 59 1013.3
20210722194516 25 244 0.0 4.8 0.00 0.00 0.00 57 1013.3
20210722194016 25 247 0.0 4.8 0.00 0.00 0.00 57 1013.3
20210722193516 25 53 0.0 4.8 0.00 0.00 0.00 54 1013.3
20210722193016 26 54 0.0 9.7 0.00 0.00 0.00 54 1013.3
20210722192516 26 349 1.6 14.5 0.00 0.00 0.00 54 1013.2
20210722192016 26 294 1.6 14.5 0.00 0.00 0.00 52 1013.1
20210722191516 26 321 0.0 6.4 0.00 0.00 0.00 52 1013.2
20210722191016 26 308 1.6 12.9 0.00 0.00 0.00 53 1013.2
20210722190516 26 287 1.6 12.9 0.00 0.00 0.00 49 1013.2
20210722190016 26 254 0.0 4.8 0.00 0.00 0.00 51 1013.2
20210722185516 26 192 0.0 3.2 0.00 0.00 0.00 51 1013.2
20210722185016 26 325 0.0 4.8 0.00 0.00 0.00 55 1013.2
20210722184516 26 180 0.0 4.8 0.00 0.00 0.00 53 1013.2
20210722184016 26 297 0.0 1.6 0.00 0.00 0.00 51 1013.2
20210722183516 26 278 0.0 4.8 0.00 0.00 0.00 51 1013.2
20210722183016 26 97 0.0 9.7 0.00 0.00 0.00 49 1013.3
20210722182516 26 284 1.6 9.7 0.00 0.00 0.00 53 1013.3
20210722182016 26 0.0 4.8 0.00 0.00 0.00 56 1013.2
20210722181516 26 86 0.0 4.8 0.00 0.00 0.00 55 1013.2
20210722181016 26 295 0.0 14.5 0.00 0.00 0.00 54 1013.2
20210722180516 26 279 1.6 14.5 0.00 0.00 0.00 54 1013.3
20210722180016 25 270 0.0 6.4 0.00 0.00 0.00 60 1013.3
20210722175516 25 272 0.0 3.2 0.00 0.00 0.00 57 1013.3
20210722175016 25 30 0.0 4.8 0.00 0.00 0.00 58 1013.3
20210722174516 26 125 0.0 4.8 0.00 0.00 0.00 57 1013.3
20210722174016 26 57 1.6 4.8 0.00 0.00 0.00 58 1013.4
20210722173516 25 265 0.0 4.8 0.00 0.00 0.00 58 1013.4
20210722173016 25 72 0.0 1.6 0.00 0.00 0.00 60 1013.4
20210722172516 25 0.0 1.6 0.00 0.00 0.00 58 1013.4
20210722172016 25 50 0.0 9.7 0.00 0.00 0.00 60 1013.4
20210722171516 25 283 1.6 9.7 0.00 0.00 0.00 59 1013.4
20210722171016 25 91 0.0 4.8 0.00 0.00 0.00 64 1013.5
20210722170516 25 284 0.0 4.8 0.00 0.00 0.00 59 1013.5
20210722170016 25 267 0.0 3.2 0.00 0.00 0.00 60 1013.6
20210722165516 25 314 0.0 3.2 0.00 0.00 0.00 65 1013.7
20210722165016 25 311 0.0 1.6 0.00 0.00 0.00 64 1013.7